{"data":{"norad_id":44316,"intl_designator":"2019-032G","name":"WT 1B","alt_names":[],"object_type":"PAYLOAD","status":"ACTIVE","operator":null,"country":"PRC","launch_date":"2019-06-05","launch_site_code":"YSLA","launch_vehicle":null,"mission":null,"orbit_class":"UNKNOWN","rcs_meters":null,"size_class":null,"mass_kg":null,"dimensions":null,"purposes":[],"wikipedia_slug":null,"has_3d_model":false,"image_url":null,"decayed_at":null,"tle_current":{"epoch":"2026-05-25T04:06:32.556096Z","epoch_age_seconds":67182,"freshness":"FRESH","line1":"1 44316U 19032G   26145.17121014  .00007337  00000+0  28502-3 0  9997","line2":"2 44316  44.9732 186.5238 0007574 121.2816 238.8809 15.26674777383561","mean_motion":15.26674777,"eccentricity":0.0007574,"inclination_deg":44.9732,"raan_deg":186.5238,"arg_perigee_deg":121.2816,"mean_anomaly_deg":238.8809,"bstar":0.00028502,"rev_number":38356,"period_min":94.322643020911,"perigee_km":480.56228225083,"apogee_km":490.9597149391,"semimajor_km":6863.897998595,"source":"CELESTRAK","updated_at":"2026-05-25T13:37:55.966410Z"}}}